Regional Weather Roundup
Issued by NWS Sioux Falls, SD

Home | Current Version | Previous Version | Graphics & Text | Print | Product List | Glossary Off
Versions: 1 2 3 4 5 6 7 8 9 10 11 12 13 14 15 16 17 18 19 20 21 22 23 24 25 26 27 28 29 30 31 32 33 34 35 36 37 38 39 40 41 42 43 44 45 46 47 48 49 50

000
ASUS43 KFSD 241210
RWRFSD

WEATHER ROUNDUP FOR SE SOUTH DAKOTA/SW MINNESOTA/NW IOWA
NATIONAL WEATHER SERVICE SIOUX FALLS SD
700 AM CDT THU JUL 24 2014

NOTE: "FAIR" INDICATES FEW OR NO CLOUDS BELOW 12,000 FEET WITH NO
SIGNIFICANT WEATHER AND OR OBSTRUCTIONS TO VISIBILITY.


SDZ038>040-050-052>070-241300-
SOUTHEAST SOUTH DAKOTA

CITY           SKY/WX    TMP DP  RH WIND       PRES   REMARKS
CHAMBERLAIN    CLEAR     65  59  82 E12       30.00S
6HR MIN TEMP:  64; 6HR MAX TEMP:  67;

HURON          LGT RAIN  62  58  86 SE10      30.03F
6HR MIN TEMP:  62; 6HR MAX TEMP:  65; 6HR PCP:  0.01;

MADISON        PTSUNNY   63  57  82 S6        30.14R
MITCHELL       TSTM      64  61  90 N5        30.14R
6HR MIN TEMP:  63; 6HR MAX TEMP:  66; 6HR PCP:  0.05;

SIOUX FALLS    CLOUDY    66  58  75 SE8       30.12R
6HR MIN TEMP:  63; 6HR MAX TEMP:  66;

WINNER         FAIR      69  58  67 SE16G23   29.95F
YANKTON        MOCLDY   N/A N/A N/A MISG        N/A
$$

MNZ071-072-080-081-089-090-097-098-241300-
SOUTHWEST MINNESOTA

CITY           SKY/WX    TMP DP  RH WIND       PRES   REMARKS
FAIRMONT       CLEAR     57  52  82 CALM      30.14F
JACKSON        CLEAR     57  54  88 CALM      30.15S
LUVERNE        CLEAR     61  54  77 CALM      30.14R
MARSHALL       CLEAR     61  52  72 S3        30.13R
6HR MIN TEMP:  57; 6HR MAX TEMP:  63;

MONTEVIDEO     CLEAR     59  57  94 CALM      30.13F
PIPESTONE      CLEAR     61  54  77 SE6       30.14R
REDWOOD FALLS  CLEAR     59  55  87 CALM      30.13F
TRACY          CLEAR     64  52  65 S5        30.14S
WINDOM         CLEAR     57  52  82 CALM      30.15S
WORTHINGTON    CLEAR     59  55  88 SE3       30.16R
$$

IAZ001>003-012>014-020>022-031-032-NEZ013-014-SDZ071-241300-
NORTHWEST IOWA

CITY           SKY/WX    TMP DP  RH WIND       PRES   REMARKS
CHEROKEE       CLEAR     60  59  98 CALM      30.13F
DENISON        CLEAR     63  59  88 E5        30.12F
ESTHERVILLE    CLEAR     55  53  93 CALM      30.14F
LE MARS        CLEAR     63  61  94 CALM      30.13R
ORANGE CITY    CLEAR     64  57  77 SE3       30.14R
SHELDON        PTCLDY    59  57  94 CALM      30.13R
SIOUX CITY     CLEAR     64  61  90 SE7       30.11F
6HR MIN TEMP:  62; 6HR MAX TEMP:  66;

SPENCER        CLEAR     59  55  87 E3        30.14F
6HR MIN TEMP:  56; 6HR MAX TEMP:  61;

STORM LAKE     CLEAR     59  59 100 SE6       30.14F
$$

ABBREVIATIONS USED IN REMARKS
   TC - TEMPERATURE IN CELSIUS
  WCI - WIND CHILL INDEX
   HX - HEAT INDEX
  VSB - VISIBILITY




USA.gov is the U.S. government's official web portal to all federal, state and local government web resources and services.